map of DEL home
Great Circle Mapper logo
DEL - Airport
Location
City:  New Delhi, India
Name:Indira Gandhi International Airport
Old (Alt.):Palam Airport
ICAO / IATA:VIDP / DEL

Details
Type:Airport (Aerodrome, Airfield)
Use:Public/Civil, International (customs port of entry)
Latitude:2834'07"N (28.568728)
Longitude:7706'44"E (77.112136)
Elevation:777 ft (237 m)
Runways:3
Longest:14534 ft (4430 m), paved

Time
Time Zone:UTC+5:30
Local Time:

Weather
METAR:VIDP 011800Z 09008KT 3500 HZ SCT030 FEW040CB SCT100 28/22 Q1004 NOSIG
TAF:VIDP 010300Z 0106/0212 11008G18KT 4000 HZ FEW040 SCT100
BECMG 0108/0110 5000 HZ SCT040 SCT100
BECMG 0113/0115 11007KT 4000 HZ
TEMPO 0115/0121 1500 TSRA/SHRA SCT030 FEW040CB OVC090
BECMG 0203/0205 09008G18KT 4000 HZ
TEMPO 0205/0209 1000 TSRA/SHRA SCT030 FEW040CB BKN090

Related Locations
Nearby:
Farthest:IPC: 12034 mi / 19367 km
Easter Island (Isla de Pascua, Rapa Nui) [Mataveri Intl], VS, CL

Find:

   beyond  
but within

Other Information
Maps:
NOTAMs:
Links:
Sources:

  
flag of India   

Sectional Chart

Flight Planning
at skyvector.com

Satellite Image

Google Maps Satellite View

 

Copyright © 2004-2014 Karl L. Swartz. All rights reserved.
The Great Circle Mapper name and logo are trademarks of the Great Circle Mapper.
All other trademarks mentioned herein belong to their respective owners.
Please see credits for attibutions and further copyright information.

  Follow gcmap on Facebook Follow gcmap on Twitter

hCard Microformat

Geo Microformat